TimeCDT,TemperatureF,Dew PointF,Humidity,Sea Level PressureIn,VisibilityMPH,Wind Direction,Wind SpeedMPH,Gust SpeedMPH,PrecipitationIn,Events,Conditions,WindDirDegrees,DateUTC
12:56 AM,75.0,66.9,76,29.72,10.0,South,10.4,-,N/A,,Clear,190,2013-07-22 05:56:00
1:56 AM,73.9,66.9,79,29.74,10.0,SSW,6.9,-,N/A,,Clear,200,2013-07-22 06:56:00
2:56 AM,73.0,66.9,81,29.73,10.0,SW,4.6,-,N/A,,Clear,220,2013-07-22 07:56:00
3:56 AM,72.0,66.0,81,29.71,10.0,SSW,8.1,-,N/A,,Clear,200,2013-07-22 08:56:00
4:56 AM,70.0,66.0,87,29.70,10.0,South,8.1,-,N/A,,Scattered Clouds,190,2013-07-22 09:56:00
5:56 AM,69.1,66.0,90,29.70,10.0,South,4.6,-,N/A,,Scattered Clouds,170,2013-07-22 10:56:00
6:56 AM,70.0,66.9,90,29.70,10.0,South,8.1,-,N/A,,Scattered Clouds,190,2013-07-22 11:56:00
7:15 AM,69.8,66.2,88,29.77,10.0,Variable,4.6,-,N/A,,Mostly Cloudy,0,2013-07-22 12:15:00
7:56 AM,71.1,66.9,87,29.75,10.0,East,5.8,-,N/A,,Mostly Cloudy,80,2013-07-22 12:56:00
8:56 AM,75.9,68.0,76,29.75,10.0,SSE,8.1,-,N/A,,Partly Cloudy,150,2013-07-22 13:56:00
9:56 AM,79.0,68.0,69,29.75,10.0,Variable,5.8,-,N/A,,Partly Cloudy,0,2013-07-22 14:56:00
10:56 AM,81.0,68.0,65,29.76,10.0,West,8.1,-,N/A,,Scattered Clouds,280,2013-07-22 15:56:00
11:56 AM,82.0,70.0,67,29.76,10.0,NNW,10.4,-,N/A,,Scattered Clouds,330,2013-07-22 16:56:00
12:56 PM,82.9,70.0,65,29.78,10.0,NW,11.5,-,N/A,,Scattered Clouds,320,2013-07-22 17:56:00
1:56 PM,84.0,68.0,58,29.76,10.0,WNW,17.3,23.0,N/A,,Partly Cloudy,300,2013-07-22 18:56:00
2:56 PM,84.0,64.9,53,29.78,10.0,NW,15.0,20.7,N/A,,Partly Cloudy,310,2013-07-22 19:56:00
3:56 PM,82.9,62.1,49,29.79,10.0,NW,11.5,21.9,N/A,,Partly Cloudy,320,2013-07-22 20:56:00
4:56 PM,82.0,60.1,47,29.80,10.0,NW,12.7,19.6,N/A,,Partly Cloudy,310,2013-07-22 21:56:00
5:56 PM,81.0,62.1,52,29.80,10.0,NNW,13.8,20.7,N/A,,Partly Cloudy,330,2013-07-22 22:56:00
6:56 PM,79.0,61.0,54,29.81,10.0,NNW,11.5,-,N/A,,Partly Cloudy,330,2013-07-22 23:56:00
7:56 PM,77.0,61.0,58,29.82,10.0,NNW,11.5,-,N/A,,Partly Cloudy,330,2013-07-23 00:56:00
8:56 PM,72.0,61.0,68,29.83,10.0,North,6.9,-,N/A,,Partly Cloudy,350,2013-07-23 01:56:00
9:56 PM,70.0,60.1,71,29.86,10.0,North,8.1,-,N/A,,Partly Cloudy,10,2013-07-23 02:56:00
10:56 PM,66.9,60.1,79,29.89,10.0,NNE,8.1,-,N/A,,Scattered Clouds,20,2013-07-23 03:56:00
11:56 PM,63.0,60.1,90,29.91,10.0,NE,6.9,-,N/A,,Partly Cloudy,40,2013-07-23 04:56:00